Regional Weather Roundup
Issued by NWS

Home | Current Version | Previous Version | Graphics & Text | Print | Product List | Glossary On
Versions: 1 2 3 4 5 6 7 8 9 10 11 12 13 14 15 16 17 18 19 20 21 22 23 24 25 26 27 28 29 30 31 32 33 34 35 36 37 38 39 40 41 42 43 44 45 46 47 48 49 50
000
ASUS43 KLSX 190407
RWRMO

WEATHER SUMMARY FOR MISSOURI
NATIONAL WEATHER SERVICE SPRINGFIELD MO
1000 PM CST THU JAN 18 2018

NOTE: "FAIR" INDICATES FEW OR NO CLOUDS BELOW 12,000 FEET WITH NO
       SIGNIFICANT WEATHER AND/OR OBSTRUCTIONS TO VISIBILITY.
       CURRENT SKY AND/OR WEATHER CONDITIONS ARE NOT AVAILABLE FOR
       CHILLICOTHE AND FARMINGTON.

MOZ001>031-035>038-043-044-053-054-190500-
...NORTHERN AND WESTERN MISSOURI...

CITY           SKY/WX    TMP DP  RH WIND       PRES   REMARKS
KANSAS CTY INT CLOUDY    36  22  56 S16G24    30.02F WCI  26
KANSAS C DTWN  CLOUDY    38  20  48 SW8       30.05S
LEE`S SUMMIT   CLOUDY    34  21  59 SW16      30.05F WCI  24
ST JOSEPH      CLOUDY    35  25  66 S10       30.01F WCI  27
CHILLICOTHE      N/A     31  20  63 S8        30.04F WCI  23
KIRKSVILLE     CLOUDY    32  22  66 SW13      30.04S WCI  22

$$
MOZ066>068-077>081-088>096-101>105-190500-
...SOUTHWEST MISSOURI...

CITY           SKY/WX    TMP DP  RH WIND       PRES   REMARKS
SPRINGFIELD    CLOUDY    30  14  51 S9        30.17F WCI  22
JOPLIN         CLOUDY    34  14  43 S15       30.17F WCI  24
BRANSON        CLOUDY    32   7  34 CALM      30.22S

$$
MOZ032>034-039>042-045>050-055>058-069>072-190500-
...CENTRAL MISSOURI...

CITY           SKY/WX    TMP DP  RH WIND       PRES   REMARKS
COLUMBIA       CLOUDY    34  19  54 S10       30.11F WCI  26
JEFFERSON CITY CLOUDY    35  18  49 SE5       30.15S
ROLLA          CLOUDY    32  14  47 S14       30.15F WCI  22
SEDALIA        CLOUDY    36  22  56 SW17      30.10F WCI  26
WHITEMAN AFB   CLEAR     35  19  53 SW18      30.05S WCI  24
WARRENSBURG    CLOUDY    34  19  55 S14G21    30.09F WCI  24
OSAGE BEACH    CLOUDY    33  17  51 S8        30.16F WCI  26

$$
MOZ051-052-059>065-190500-
...EAST CENTRAL MISSOURI...

CITY           SKY/WX    TMP DP  RH WIND       PRES   REMARKS
ST LOUIS INTL  PTCLDY    37  16  42 SW9       30.15S
SPIRIT OF STL  CLEAR     37  15  40 SW6       30.14F
ST CHARLES     CLEAR     31  19  61 SW7       30.14F WCI  24

$$
MOZ072>076-082>087-097>100-106>115-190500-
...SOUTH CENTRAL AND SOUTHEAST MISSOURI...

CITY           SKY/WX    TMP DP  RH WIND       PRES   REMARKS
CAPE GIRARDEAU FAIR      24  16  71 SW7       30.30S WCI  16
FARMINGTON     FAIR      28  19  69 S8        30.21S WCI  20
POPLAR BLUFF   FAIR      25  17  72 S7        30.30S WCI  17
WEST PLAINS    CLOUDY    30   9  41 SW6       30.22F WCI  24

$$


USA.gov is the U.S. government's official web portal to all federal, state and local government web resources and services.